Simultaneous Nadir Overpasses (SNOs) Predictions

Prediction of SNOs between AQUA and NOAA-19 Satellite Orbit:

Table of predicted SNOs for the next 14.0 days since TLE Epoch: 7/29/2023
Index Date (AQUA) Time (AQUA) Lat,Lon (AQUA) SZA (AQUA ) Date (NOAA-19) Time (NOAA-19) Lat,Lon (NOAA-19) SZA (NOAA-19 ) Distance(km) Time Diff (sec)
1 07/29/2023 12:25:09 -76.33, 165.03 122.24 07/29/2023 12:24:35 -76.32, 164.95 122.23 2.09 34
2 07/29/2023 13:14:35 76.38, -27.50 57.84 07/29/2023 13:15:34 76.41, -27.48 57.85 2.73 59
3 07/31/2023 17:07:05 -76.34, 94.54 121.70 07/31/2023 17:06:02 -76.32, 94.65 121.71 3.50 63
4 07/31/2023 17:56:30 76.35, -97.84 58.33 07/31/2023 17:57:01 76.38, -97.88 58.35 3.52 31
5 08/02/2023 22:38:25 76.34,-168.28 58.87 08/02/2023 22:38:28 76.34,-168.31 58.88 0.85 3
6 08/05/2023 03:20:19 76.32, 121.35 59.42 08/05/2023 03:19:55 76.30, 121.24 59.42 3.47 24
7 08/05/2023 04:09:44 -76.37, -71.16 120.52 08/05/2023 04:10:53 -76.38, -71.19 120.51 2.12 69
8 08/07/2023 08:02:13 76.32, 50.89 60.02 08/07/2023 08:01:21 76.30, 50.93 60.01 2.66 52
9 08/07/2023 08:51:38 -76.37,-141.61 119.92 08/07/2023 08:52:20 -76.36,-141.57 119.93 1.19 42
10 08/09/2023 12:44:03 76.16, -19.03 60.46 08/09/2023 12:42:52 76.07, -20.23 60.44 33.66 71
11 08/09/2023 13:33:31 -76.35, 148.00 119.33 08/09/2023 13:33:47 -76.34, 148.03 119.34 1.50 16
12 08/11/2023 18:15:23 -76.31, 77.68 118.73 08/11/2023 18:15:14 -76.30, 77.61 118.73 2.00 9



Historial Predications of SNOs between AQUA and NOAA-19
